NOAA 16 DEB, 41277

Orbit data source: Space-Track

NOAA 16 DEB, 41277 is space debris in SSO originally from a launch on Thu, 21 Sep 2000 UTC launched from the Air Force Western Test Range (AFWTR). Debris objects in space refer to the collection of defunct objects orbiting the Earth. Examples of debris include non-operational satellites, rocket bodies, and fragments generated from explosions, collisions, or faulty payload assembly.

Loading next visibility...
Identifier
41277, 2000-055GD
Orbit
SSO
Country
Flag of USUS
Related business
Manufacturer
Unknown
Mission
Spacecraft
Bus & Motor
Unknown
Mass
Unknown
Launch date (UTC)
2000-09-21 (25 years ago)
Launch vehicle
Unknown
Launch site
Air Force Western Test Range (AFWTR)
Object type
Payload
Rocket body
Debris
Shape & HBR
Unknown
Radar Cross Section
Small (<0.1 m²)

Expand to show TLE details & history
Last TLE update: 2 days ago

TLE from 2 days ago
0 NOAA 16 DEB
1 41277U 00055GD  25258.25234249  .00013563  00000-0  36315-2 0  9992
2 41277  98.9921  84.6543 0033203 231.3320 128.4900 14.48026586506612
Epoch: 2025-09-15T06:03Z
TLE epoch observation values (Epoch: 2025-09-15T06:03:22.391Z)
Latitude
0.00008°
Longitude
-0.64867°
Altitude
749.789 km
Speed
7.472 km/s
True Right ascension
05h 38m 37s
True Declination
0° 00' 00"
Sunlit
Object was in daylight at epoch
Visualization orbit readout
Latitude
Unknown
Longitude
Unknown
Altitude
Unknown
Speed
Unknown
Apparent Right ascension
Unknown
Apparent Declination
Unknown
Sunlit
N/A
Visualization observer readout
Local Sidereal Time
14:00:46
Azimuth
Unknown
Elevation
Unknown
Doppler factor
Unknown
Orbital elements
Apogee altitude
752.835 km
Perigee altitude
705.638 km
Semi-major axis
7,107.373 km
Eccentricity
0.00332
Inclination
98.9921°
RAAN
84.6543°
Arg. of periapsis
231.332°
True anomaly
128.78704°
Mean anomaly
128.49°
Eccentric anomaly
128.6386°
Mean motion
3.62226 °/min
Orbital period
99.39 mins
BSTAR
0.0036315
Loading maneuver chart data...
Computing Atmospheric mass density...
Loading historical data...
Loading historical data...
Loading historical data...
Loading historical data...
Loading historical data...
Loading historical data...
Loading historical data...

Documentation

Showing up to 5 results
|